Meteo Giornale » Osservazioni meteo Repubblica Ceca » Namest

ore: 20:00 - Osservazioni Meteo Namest
Lat. 49° 10' N Lon. 16° 7' E Alt. 472 metri s.l.m.

sereno

20 °C

Sereno

Temp. 24 Ore

15 °C

23 °C

Nord

5.5 Km/h

Dew point 8 °C

Umidità 45 %

Visibilità  10 Km

Il sole sorge alle ore 06:11

Il sole tramonta alle ore 19:39

Data e Ora Cielo e Fenomeni T °C DP °C Um. % Pres. hPa Vis. km Vento km/h
Oggi h: 20:00 sereno Sereno 20 8 45 1021 10 N 5.5
Oggi h: 19:00 sereno Sereno 21 8 43 1021 10 N/NO 11.1
Oggi h: 18:00 sereno Sereno 22 7 37 1021 10 O 14.8
Oggi h: 17:00 sereno Sereno 23 7 35 1021 10 O/NO 24
Oggi h: 16:00 sereno Sereno 23 8 38 1021 10 O 20.3
Oggi h: 15:00 sereno Sereno 23 7 35 1021 10 O 24
Oggi h: 14:00 sereno Sereno 23 8 38 1021 10 O/NO 24
Oggi h: 13:00 sereno Sereno 23 9 40 1021 10 NO 27.8
Oggi h: 12:00 molto_nuvoloso Molto Nuvoloso 21 9 46 1021 10 O 29.6
Oggi h: 11:00 molto_nuvoloso Molto Nuvoloso 20 10 52 1021 10 O/NO 27.8
Oggi h: 10:00 nuvoloso Nuvoloso 19 11 59 1021 10 O/NO 33.3
Oggi h: 09:00 sereno Sereno 18 11 63 1020 10 O/NO 31.5
Oggi h: 08:00 sereno Sereno 16 11 72 1020 10 O 27.8
Oggi h: 07:00 sereno Sereno 15 10 72 1019 10 O 18.5
Oggi h: 06:00 sereno Sereno 15 10 72 1019 10 O/NO 24
Oggi h: 05:00 sereno Sereno 15 10 72 1019 10 O 18.5
Oggi h: 04:00 sereno Sereno 16 10 67 1019 10 O 20.3
Oggi h: 03:00 sereno Sereno 17 10 63 1018 10 O 18.5
Oggi h: 02:00 sereno Sereno 16 11 72 1019 10 O 11.1
Oggi h: 01:00 sereno Sereno 17 12 72 1019 10 S/SO 7.4
Oggi h: 00:00 sereno Sereno 19 11 59 1019 10 SO 9.3
Ieri h: 23:00 sereno Sereno 19 11 59 1018 10 O/SO 9.3
Ieri h: 22:00 sereno Sereno 20 11 56 1017 10 NO 13
Ieri h: 21:00 sereno Sereno 21 11 52 1017 10 NO 16.7